Welcome to the New NWS' Forecast!
Most changes are behind the scenes, but click here for differences you might notice.

Regional Weather Roundup (RWR)

Issued by National Weather Service (NWS)

                            
000
ASUS43 KIND 230809
RWRIN 

WEATHER ROUNDUP FOR INDIANA
NATIONAL WEATHER SERVICE INDIANAPOLIS IN
400 AM EDT TUE OCT 23 2018

NOTE: "FAIR" INDICATES FEW OR NO CLOUDS BELOW 12,000 FEET WITH NO
SIGNIFICANT WEATHER AND/OR OBSTRUCTIONS TO VISIBILITY.

* - STATION DOES NOT REPORT WEATHER SUCH AS PRECIPITATION OR FOG.

+ - STATION NOT QUALITY CONTROLLED BY THE NATIONAL WEATHER SERVICE.
    USE DATA WITH CAUTION...ESPECIALLY DEWPOINT AND RELATIVE
    HUMIDITY OBSERVATIONS.

INZ001>003-010>013-019-020-230900-
NORTHWEST INDIANA
  
CITY           SKY/WX    TMP DP  RH WIND       PRES   REMARKS
GARY /AIRPORT/ FAIR      44  33  63 W8        30.12R                  
KNOX *+        FAIR      41  32  70 W8        30.09R                  
LA PORTE +     FAIR      42  35  74 W5        30.09S                  
MICHIGAN CITY+ FAIR      52  32  46 NW9       30.09S                  
MONTICELLO +   FAIR      45  33  64 W6        30.12R                  
RENSSELAER +   FAIR      43  34  70 W5        30.12R                  
VALPARAISO     FAIR      44  32  62 W6        30.10R                  

$$

LMZ046-743>745-230900-
SOUTHERN LAKE MICHIGAN
  
STATION/POSITION TIME  TEMP    WIND        PRES    WAVE
                       AIR SEA DIR/SP/G            HT
                 (UTC) (F)     (DEG/KT/KT) (MB)    (FT)
BURNS HARBOR     0800   55     310/ 11/ 13 1019.3
MICHIGAN CITY    0740   55     290/ 23/ 26   N/A
5NW MICH CITY    0800   54 55  330/ 17/ 23   N/A     4

$$

INZ004-005-014>016-021>024-230900-
NORTH CENTRAL INDIANA
  
CITY           SKY/WX    TMP DP  RH WIND       PRES   REMARKS
GOSHEN         FAIR      42  35  76 SW7       30.05S                  
LOGANSPORT +   FAIR      43  36  75 W8        30.11S                  
PERU/GRISSOM   FAIR      41  38  87 W7        30.08S                  
ROCHESTER +    FAIR      45  34  65 W6        30.09R                  
SOUTH BEND     FAIR      42  33  70 W8        30.07S                  
WARSAW +       FAIR      41  34  75 W6        30.06S                  

$$

INZ006>009-017-018-025>027-230900-
NORTHEAST INDIANA
  
CITY           SKY/WX    TMP DP  RH WIND       PRES   REMARKS
ANGOLA *+      FAIR      46  36  66 W6        30.02S                  
AUBURN +       FAIR      43  36  75 SW3       30.05R                  
FORT WAYNE     FAIR      44  39  82 W9        30.06S                  
HUNTINGTON +   FAIR      45  36  71 W7        30.07S                  
KENDALLVILLE + FAIR      45  32  61 W8        30.04S                  

$$

INZ028-029-035-036-043>045-051>053-230900-
WEST CENTRAL INDIANA
  
CITY           SKY/WX    TMP DP  RH WIND       PRES   REMARKS
CRAWFORDSVL +  FAIR      40  40 100 CALM      30.14S                  
GREENCASTLE +  FAIR      43  37  81 CALM      30.14F                  
LAFAYETTE      FAIR      42  38  85 W5        30.12S                  
TERRE HAUTE    FAIR      41  38  89 CALM      30.16R                  

$$

INZ030>032-037>040-046>048-054>057-064-065-230900-
CENTRAL INDIANA
  
CITY           SKY/WX    TMP DP  RH WIND       PRES   REMARKS
ANDERSON +     FAIR      47  42  80 SW7       30.11S                  
FRANKFORT +    FAIR      39  35  87 W5        30.13S WCI  35          
GREENWOOD *+   FAIR      46  38  75 SW6       30.14S                  
INDIANAPOLIS   FAIR      44  39  82 SW9       30.13S                  
-EAGLE CREEK   FAIR      48  40  73 W5        30.12S                  
KOKOMO +       FAIR      45  39  79 W10       30.10                   
MARION +       FAIR      43  42  97 W8        30.10S                  
MT COMFORT *+  FAIR      46  43  87 W6        30.12F                  
SHELBYVILLE    FAIR      47  37  68 W8        30.13S                  
ZIONSVILLE +   FAIR      44  41  91 W7        30.13R                  

$$

INZ033-034-041-042-049-050-058-059-230900-
EAST CENTRAL INDIANA
  
CITY           SKY/WX    TMP DP  RH WIND       PRES   REMARKS
MUNCIE         FAIR      49  41  74 W7        30.09S                  
RICHMOND +     FAIR      45  39  81 W10       30.11F                  

$$

INZ060-061-067>069-081>083-085>088-230900-
SOUTHWEST INDIANA
  
CITY           SKY/WX    TMP DP  RH WIND       PRES   REMARKS
EVANSVILLE     FAIR      42  40  92 CALM      30.19S                  
HUNTINGBURG +  FAIR      44  38  79 S5        30.18F                  
WASHINGTON +   FAIR      43  34  71 CALM      30.17S                  

$$

INZ062-063-066-070>080-084-089>092-230900-
SOUTH CENTRAL AND SOUTHEAST INDIANA
  
CITY           SKY/WX    TMP DP  RH WIND       PRES   REMARKS
BEDFORD +      FAIR      48  36  61 W6        30.16S                  
BLOOMINGTON    FAIR      48  38  68 SW6       30.15S                  
FRENCH LICK *+ FAIR      45  32  61 SW5       30.18S                  
MADISON *+     FAIR      41  37  87 CALM      30.18S                  
NORTH VERNON + FAIR      43  36  75 SW6       30.15S                  
SEYMOUR +      FAIR      48 N/A N/A W7        30.15F                  

$$